| time (UTC) | temp F | wind direction | speed MPH | gust MPH | rain 1hr in | rain 24hr in | rain mn in | humidity % | barometer mb |
| 20260502194016 | 54 | 225 | 2.0 | 8.0 | 0.00 | 0.00 | 0.00 | 45 | 1018.5 |
| 20260502193017 | 55 | 45 | 1.0 | 8.0 | 0.00 | 0.00 | 0.00 | 40 | 1018.6 |
| 20260502192018 | 56 | 45 | 1.0 | 5.0 | 0.00 | 0.00 | 0.00 | 41 | 1018.8 |
| 20260502191015 | 55 | 293 | 1.0 | 6.0 | 0.00 | 0.00 | 0.00 | 48 | 1018.8 |
| 20260502190016 | 55 | 45 | 2.0 | 8.0 | 0.00 | 0.00 | 0.00 | 44 | 1018.9 |
| 20260502185015 | 54 | 270 | 2.0 | 8.0 | 0.00 | 0.00 | 0.00 | 46 | 1018.9 |
| 20260502184015 | 53 | 0.0 | 3.0 | 0.00 | 0.00 | 0.00 | 44 | 1018.9 | |
| 20260502183035 | 54 | 338 | 1.0 | 4.0 | 0.00 | 0.00 | 0.00 | 45 | 1019.1 |
| 20260502182016 | 53 | 270 | 4.0 | 11.0 | 0.00 | 0.00 | 0.00 | 41 | 1019.1 |
| 20260502181015 | 53 | 270 | 2.0 | 8.0 | 0.00 | 0.00 | 0.00 | 43 | 1019.2 |
| 20260502164015 | 54 | 45 | 1.0 | 4.0 | 0.00 | 0.00 | 0.00 | 46 | 1019.5 |
| 20260502163015 | 53 | 45 | 1.0 | 5.0 | 0.00 | 0.00 | 0.00 | 41 | 1019.6 |
| 20260502162015 | 53 | 270 | 2.0 | 8.0 | 0.00 | 0.00 | 0.00 | 44 | 1019.6 |
| 20260502161015 | 52 | 45 | 1.0 | 7.0 | 0.00 | 0.00 | 0.00 | 42 | 1019.6 |
| 20260502152015 | 51 | 0.0 | 2.0 | 0.00 | 0.00 | 0.00 | 53 | 1019.6 | |
| 20260502151015 | 49 | 0.0 | 5.0 | 0.00 | 0.00 | 0.00 | 54 | 1019.7 | |
| 20260502123015 | 41 | 0.0 | 0.0 | 0.00 | 0.00 | 0.00 | 79 | 1019.1 | |
| 20260502122015 | 40 | 0.0 | 0.0 | 0.00 | 0.00 | 0.00 | 80 | 1019.2 | |
| 20260502121035 | 40 | 0.0 | 0.0 | 0.00 | 0.00 | 0.00 | 82 | 1019.0 | |
| 20260502115016 | 39 | 0.0 | 0.0 | 0.00 | 0.00 | 0.00 | 86 | 1018.7 | |
| 20260502114015 | 39 | 0.0 | 0.0 | 0.00 | 0.00 | 0.00 | 87 | 1018.5 | |
| 20260502113016 | 38 | 0.0 | 0.0 | 0.00 | 0.00 | 0.00 | 87 | 1018.4 | |
| 20260502112016 | 38 | 0.0 | 0.0 | 0.00 | 0.00 | 0.00 | 87 | 1018.5 | |
| 20260502111015 | 37 | 0.0 | 0.0 | 0.00 | 0.00 | 0.00 | 87 | 1018.3 | |
| 20260502110035 | 37 | 0.0 | 0.0 | 0.00 | 0.00 | 0.00 | 87 | 1018.2 | |
| 20260502105016 | 38 | 0.0 | 0.0 | 0.00 | 0.00 | 0.00 | 87 | 1017.9 | |
| 20260502104035 | 38 | 0.0 | 0.0 | 0.00 | 0.00 | 0.00 | 87 | 1018.1 | |
| 20260502103015 | 38 | 0.0 | 0.0 | 0.00 | 0.01 | 0.00 | 86 | 1018.2 | |
| 20260502102015 | 38 | 0.0 | 0.0 | 0.00 | 0.01 | 0.00 | 85 | 1018.4 | |
| 20260502101015 | 38 | 0.0 | 0.0 | 0.00 | 0.01 | 0.00 | 85 | 1018.4 | |
| 20260502091016 | 38 | 0.0 | 0.0 | 0.00 | 0.04 | 0.00 | 88 | 1018.4 | |
| 20260502071016 | 42 | 0.0 | 0.0 | 0.00 | 0.04 | 0.00 | 82 | 1018.1 | |
| 20260502070016 | 43 | 0.0 | 0.0 | 0.00 | 0.04 | 0.00 | 82 | 1018.2 | |
| 20260502065015 | 43 | 0.0 | 0.0 | 0.00 | 0.04 | 0.00 | 82 | 1018.3 | |
| 20260502064015 | 43 | 0.0 | 0.0 | 0.00 | 0.04 | 0.00 | 82 | 1018.3 | |
| 20260502063015 | 43 | 0.0 | 0.0 | 0.00 | 0.04 | 0.00 | 82 | 1018.3 | |
| 20260502062016 | 43 | 0.0 | 0.0 | 0.00 | 0.04 | 0.00 | 82 | 1018.5 | |
| 20260502061015 | 43 | 0.0 | 0.0 | 0.00 | 0.04 | 0.00 | 82 | 1018.4 | |
| 20260502060035 | 43 | 0.0 | 0.0 | 0.00 | 0.04 | 0.00 | 83 | 1018.3 | |
| 20260502055016 | 43 | 0.0 | 0.0 | 0.00 | 0.04 | 0.00 | 83 | 1018.3 | |
| 20260502054015 | 43 | 0.0 | 0.0 | 0.00 | 0.04 | 0.00 | 84 | 1018.4 | |
| 20260502053015 | 43 | 0.0 | 0.0 | 0.00 | 0.04 | 0.00 | 85 | 1018.4 | |
| 20260502052038 | 43 | 0.0 | 0.0 | 0.00 | 0.04 | 0.00 | 87 | 1018.3 | |
| 20260502051515 | 43 | 0.0 | 0.0 | 0.00 | 0.04 | 0.00 | 87 | 1018.2 | |
| 20260502050516 | 42 | 0.0 | 0.0 | 0.00 | 0.04 | 0.00 | 86 | 1018.2 | |
| 20260502045515 | 42 | 0.0 | 0.0 | 0.00 | 0.04 | 0.00 | 85 | 1018.2 | |
| 20260502044516 | 42 | 0.0 | 0.0 | 0.00 | 0.04 | 0.00 | 85 | 1018.2 | |
| 20260502043515 | 42 | 0.0 | 0.0 | 0.00 | 0.04 | 0.00 | 84 | 1018.0 | |
| 20260502042515 | 42 | 0.0 | 0.0 | 0.00 | 0.04 | 0.00 | 84 | 1017.7 | |
| 20260502041515 | 42 | 0.0 | 0.0 | 0.00 | 0.04 | 0.00 | 83 | 1018.0 | |
| 20260502040515 | 43 | 0.0 | 0.0 | 0.00 | 0.04 | 0.00 | 84 | 1018.1 | |
| 20260502035515 | 43 | 0.0 | 0.0 | 0.00 | 0.04 | 0.04 | 84 | 1018.1 | |
| 20260502034535 | 42 | 0.0 | 0.0 | 0.00 | 0.04 | 0.04 | 83 | 1018.1 | |
| 20260502033516 | 42 | 0.0 | 0.0 | 0.00 | 0.04 | 0.04 | 83 | 1018.0 | |
| 20260502032516 | 43 | 0.0 | 0.0 | 0.00 | 0.04 | 0.04 | 83 | 1017.9 | |
| 20260502031515 | 43 | 0.0 | 0.0 | 0.00 | 0.04 | 0.04 | 83 | 1018.0 | |
| 20260502030516 | 43 | 0.0 | 0.0 | 0.00 | 0.04 | 0.04 | 82 | 1018.2 | |
| 20260502025516 | 43 | 0.0 | 0.0 | 0.00 | 0.04 | 0.04 | 82 | 1018.2 | |
| 20260502024516 | 43 | 0.0 | 0.0 | 0.00 | 0.04 | 0.04 | 83 | 1018.2 | |
| 20260502023515 | 44 | 0.0 | 0.0 | 0.00 | 0.04 | 0.04 | 82 | 1018.2 | |
| 20260502022516 | 44 | 0.0 | 0.0 | 0.00 | 0.04 | 0.04 | 82 | 1018.1 | |
| 20260502021516 | 44 | 0.0 | 0.0 | 0.00 | 0.04 | 0.04 | 82 | 1018.1 | |
| 20260502020516 | 45 | 0.0 | 0.0 | 0.00 | 0.04 | 0.04 | 81 | 1017.8 | |
| 20260502015516 | 45 | 0.0 | 0.0 | 0.00 | 0.04 | 0.04 | 80 | 1017.7 | |
| 20260502014620 | 45 | 0.0 | 0.0 | 0.00 | 0.04 | 0.04 | 82 | 1017.6 | |
| 20260502013016 | 45 | 0.0 | 0.0 | 0.00 | 0.04 | 0.04 | 79 | 1017.5 | |
| 20260502012015 | 46 | 0.0 | 0.0 | 0.00 | 0.04 | 0.04 | 77 | 1017.0 | |
| 20260502011015 | 46 | 0.0 | 0.0 | 0.00 | 0.04 | 0.04 | 76 | 1016.7 | |
| 20260502010035 | 47 | 0.0 | 0.0 | 0.00 | 0.04 | 0.04 | 76 | 1016.3 | |
| 20260502005016 | 47 | 0.0 | 0.0 | 0.00 | 0.04 | 0.04 | 74 | 1016.5 | |
| 20260502004016 | 48 | 0.0 | 0.0 | 0.00 | 0.04 | 0.04 | 72 | 1016.4 | |
| 20260502003015 | 48 | 0.0 | 0.0 | 0.00 | 0.04 | 0.04 | 70 | 1016.3 | |
| 20260502002015 | 48 | 0.0 | 0.0 | 0.00 | 0.04 | 0.04 | 69 | 1016.1 | |
| 20260502001016 | 49 | 0.0 | 0.0 | 0.00 | 0.04 | 0.04 | 68 | 1016.1 | |
| 20260502000036 | 50 | 0.0 | 0.0 | 0.00 | 0.04 | 0.04 | 67 | 1016.0 | |
| 20260501235015 | 51 | 0.0 | 0.0 | 0.00 | 0.04 | 0.04 | 65 | 1016.1 | |
| 20260501234015 | 51 | 0.0 | 0.0 | 0.00 | 0.04 | 0.04 | 63 | 1016.1 | |
| 20260501233015 | 51 | 0.0 | 1.0 | 0.00 | 0.04 | 0.04 | 62 | 1016.1 | |
| 20260501232015 | 52 | 0.0 | 0.0 | 0.00 | 0.04 | 0.04 | 59 | 1016.3 | |
| 20260501231035 | 52 | 0.0 | 1.0 | 0.00 | 0.04 | 0.04 | 58 | 1016.4 | |
| 20260501230015 | 52 | 0.0 | 5.0 | 0.00 | 0.04 | 0.04 | 60 | 1016.4 | |
| 20260501225036 | 53 | 0.0 | 2.0 | 0.00 | 0.04 | 0.04 | 59 | 1016.5 | |
| 20260501224015 | 53 | 45 | 1.0 | 3.0 | 0.00 | 0.04 | 0.04 | 60 | 1016.4 |
| 20260501223015 | 53 | 180 | 1.0 | 4.0 | 0.00 | 0.04 | 0.04 | 59 | 1016.2 |
| 20260501222016 | 53 | 270 | 1.0 | 4.0 | 0.00 | 0.04 | 0.04 | 57 | 1016.2 |
| 20260501221015 | 54 | 0.0 | 5.0 | 0.00 | 0.04 | 0.04 | 55 | 1016.4 | |
| 20260501220015 | 54 | 0.0 | 2.0 | 0.00 | 0.04 | 0.04 | 56 | 1016.4 | |
| 20260501215035 | 55 | 293 | 1.0 | 5.0 | 0.00 | 0.04 | 0.04 | 58 | 1016.3 |
| 20260501214016 | 54 | 0.0 | 3.0 | 0.00 | 0.04 | 0.04 | 57 | 1016.3 | |
| 20260501213015 | 54 | 225 | 1.0 | 6.0 | 0.00 | 0.04 | 0.04 | 58 | 1016.4 |
| 20260501212016 | 54 | 0.0 | 2.0 | 0.00 | 0.04 | 0.04 | 58 | 1016.5 | |
| 20260501211016 | 55 | 0.0 | 2.0 | 0.00 | 0.04 | 0.04 | 55 | 1016.6 | |
| 20260501210015 | 54 | 0.0 | 1.0 | 0.00 | 0.04 | 0.04 | 58 | 1016.5 | |
| 20260501205016 | 55 | 0.0 | 3.0 | 0.00 | 0.04 | 0.04 | 56 | 1016.6 | |
| 20260501204016 | 55 | 0.0 | 1.0 | 0.00 | 0.04 | 0.04 | 57 | 1016.5 | |
| 20260501203056 | 54 | 0.0 | 3.0 | 0.00 | 0.04 | 0.04 | 57 | 1016.5 | |
| 20260501202016 | 55 | 270 | 1.0 | 5.0 | 0.00 | 0.04 | 0.04 | 53 | 1016.6 |
| 20260501201036 | 55 | 23 | 1.0 | 3.0 | 0.00 | 0.04 | 0.04 | 53 | 1016.8 |
| 20260501200015 | 57 | 270 | 2.0 | 5.0 | 0.00 | 0.04 | 0.04 | 54 | 1016.8 |
| 20260501195015 | 56 | 270 | 1.0 | 5.0 | 0.00 | 0.04 | 0.04 | 54 | 1016.7 |